Back to catalog

SL-14 R/B

AlivePO
NORAD 18340·ROCKET BODY·🇷🇺 Russia

Launched Sep 7, 1987 from Plesetsk Cosmodrome

Loading…

Next Passes (next 24 hours)

TLE

FreshSource: Space-Track

Epoch: Sep 14, 2026, 07:04 UTC

1 18340U 87074G   26257.29500998  .00000020  00000-0  59607-4 0  9999
2 18340  82.5734  20.3082 0039731   9.8314  15.8830 12.55580311788199

Track SL-14 R/B in real time with AllMySat

Download on the App Store